Location: Sungai Anya
(2.6167°N, 114.0500°E)
Time: 12:43:36
(UTC+00:00)

Meteor 1-4 Rocket - Pass Details

Date: 19 October 2021
Orbit: 446 x 496 km, 81.2° (Epoch: 29 November)

Event Time Altitude Azimuth Distance (km) Brightness Sun altitude
Rises 11:15:04 0° 192° (SSW) 2,546 6.5 -16.8°
Reaches altitude 10° 11:17:12 10° 196° (SSW) 1,656 5.6 -17.3°
Maximum altitude 11:20:46 56° 275° (W) 568 3.2 -18.2°
Drops below altitude 10° 11:24:15 10° 354° (N) 1,620 5.2 -19.0°
Sets 11:26:20 0° 359° (N) 2,484 6.1 -19.5°
